Regional Weather Roundup
Issued by NWS

Home | Current Version | Previous Version | Graphics & Text | Print | Product List | Glossary On
Versions: 1 2 3 4 5 6 7 8 9 10 11 12 13 14 15 16 17 18 19 20 21 22 23 24 25 26 27 28 29 30 31 32 33 34 35 36 37 38 39 40 41 42 43 44 45 46 47 48 49 50
725
ASUS43 KIND 220659
RWRIN

WEATHER ROUNDUP FOR INDIANA
NATIONAL WEATHER SERVICE INDIANAPOLIS IN
200 AM EST SUN JAN 22 2017

NOTE: "FAIR" INDICATES FEW OR NO CLOUDS BELOW 12,000 FEET WITH NO
SIGNIFICANT WEATHER AND/OR OBSTRUCTIONS TO VISIBILITY.

* - STATION DOES NOT REPORT WEATHER SUCH AS PRECIPITATION OR FOG.

+ - STATION NOT QUALITY CONTROLLED BY THE NATIONAL WEATHER SERVICE.
    USE DATA WITH CAUTION...ESPECIALLY DEWPOINT AND RELATIVE
    HUMIDITY OBSERVATIONS.

INZ001>003-010>013-019-020-220800-
NORTHWEST INDIANA

CITY           SKY/WX    TMP DP  RH WIND       PRES   REMARKS
MONTICELLO +   MOCLDY    44  43  95 CALM      29.59F FOG
RENSSELAER +   FOG       39  39 100 CALM      29.59F VSB 1/2

$$

LMZ046-743>745-220800-
SOUTHERN LAKE MICHIGAN

STATION/POSITION TIME  TEMP    WIND        PRES    WAVE
                       AIR SEA DIR/SP/G            HT
                 (UTC) (F)     (DEG/KT/KT) (MB)    (FT)
BURNS HARBOR     0640   45     180/  4/  5 1003.0R
MICHIGAN CITY    0630   47     140/  4/  4   N/A

$$

INZ004-005-014>016-021>024-220800-
NORTH CENTRAL INDIANA

CITY           SKY/WX    TMP DP  RH WIND       PRES   REMARKS
GOSHEN         FOG       38  36  92 CALM      29.60S VSB 1/4
PERU/GRISSOM   LGT RAIN  52  52 100 W8        29.60R
SOUTH BEND     FOG       36  36 100 CALM      29.60S VSB 1/4

$$

INZ006>009-017-018-025>027-220800-
NORTHEAST INDIANA

CITY           SKY/WX    TMP DP  RH WIND       PRES   REMARKS
ANGOLA *+      CLOUDY    37  30  75 CALM      29.60R VSB 1/4
FORT WAYNE     TSTM      51  49  92 SE6       29.61F
KENDALLVILLE +   N/A     48  48 100 S6        29.61R FOG

$$

INZ028-029-035-036-043>045-051>053-220800-
WEST CENTRAL INDIANA

CITY           SKY/WX    TMP DP  RH WIND       PRES   REMARKS
CRAWFORDSVL +  CLOUDY    49  49 100 CALM      29.59S
LAFAYETTE      MOCLDY    49  49 100 S5        29.57F
TERRE HAUTE    CLEAR     45  44  97 E3        29.56F

$$

INZ030>032-037>040-046>048-054>057-064-065-220800-
CENTRAL INDIANA

CITY           SKY/WX    TMP DP  RH WIND       PRES   REMARKS
INDIANAPOLIS   PTCLDY    50  46  86 E5        29.58F
-EAGLE CREEK   PTCLDY    48  45  89 CALM      29.58F
KOKOMO +       LGT RAIN  53  51  93 W9        29.62R
MT COMFORT *+  PTCLDY    50  48  93 S5        29.60F
SHELBYVILLE    CLEAR     52  47  83 S5        29.59F

$$

INZ033-034-041-042-049-050-058-059-220800-
EAST CENTRAL INDIANA

CITY           SKY/WX    TMP DP  RH WIND       PRES   REMARKS
MUNCIE         MOCLDY    55  50  83 S6        29.60S

$$

INZ060-061-067>069-081>083-085>088-220800-
SOUTHWEST INDIANA

CITY           SKY/WX    TMP DP  RH WIND       PRES   REMARKS
EVANSVILLE     PTCLDY    51  46  83 NE7       29.51F
HUNTINGBURG *+ CLEAR     52  48  86 NE6       29.54F

$$

INZ062-063-066-070>080-084-089>092-220800-
SOUTH CENTRAL AND SOUTHEAST INDIANA

CITY           SKY/WX    TMP DP  RH WIND       PRES   REMARKS
BLOOMINGTON    CLEAR     48  44  86 SE3       29.56F
MADISON *+     CLEAR     46  43  87 E3        29.62F
SEYMOUR +      CLEAR     48  46  93 SE3       29.58F

$$





USA.gov is the U.S. government's official web portal to all federal, state and local government web resources and services.